�������l�o���
Date,Time,MP-1(��Sv/h),MP-2(��Sv/h),MP-3(��Sv/h),MP-4(��Sv/h),MP-5(��Sv/h),MP-6(��Sv/h),MP-7(��Sv/h),MP-8(��Sv/h),����,����(m/s),���J
2020/04/02,00:00,0.667,0.937,0.633,1.142,0.791,0.393,0.674,0.644,�k�k��,11.1,�L
2020/04/02,00:10,0.669,0.937,0.632,1.145,0.789,0.393,0.674,0.645,�k��,11.7,�L
2020/04/02,00:20,0.667,0.939,0.632,1.146,0.790,0.392,0.675,0.642,�k��,11.6,�L
2020/04/02,00:30,0.669,0.936,0.633,1.146,0.789,0.390,0.676,0.645,�k��,12.5,�L
2020/04/02,00:40,0.666,0.935,0.632,1.146,0.790,0.391,0.675,0.644,�k��,11.8,�L
2020/04/02,00:50,0.668,0.937,0.631,1.144,0.790,0.390,0.674,0.644,�k��,12.4,�L
2020/04/02,01:00,0.667,0.937,0.629,1.145,0.791,0.391,0.675,0.644,�k��,10.7,�L
2020/04/02,01:10,0.664,0.935,0.631,1.143,0.790,0.390,0.673,0.643,�k��,10.0,�L
2020/04/02,01:20,0.668,0.937,0.632,1.145,0.791,0.390,0.675,0.645,�k��,11.7,�L
2020/04/02,01:30,0.666,0.938,0.633,1.147,0.791,0.391,0.675,0.642,�k��,12.0,�L
2020/04/02,01:40,0.668,0.941,0.632,1.147,0.793,0.390,0.675,0.645,�k��,11.4,�L
2020/04/02,01:50,0.667,0.940,0.633,1.148,0.792,0.389,0.676,0.644,�k��,10.3,�L
2020/04/02,02:00,0.666,0.941,0.633,1.147,0.793,0.391,0.675,0.645,�k��,10.9,�L
2020/04/02,02:10,0.671,0.942,0.634,1.152,0.794,0.391,0.675,0.645,�k��,13.3,�L
2020/04/02,02:20,0.670,0.942,0.634,1.150,0.794,0.391,0.675,0.646,�k��,12.0,�L
2020/04/02,02:30,0.672,0.945,0.634,1.151,0.795,0.391,0.675,0.645,�k��,12.2,��
2020/04/02,02:40,0.670,0.946,0.633,1.151,0.796,0.391,0.674,0.647,�k��,11.6,��
2020/04/02,02:50,0.672,0.943,0.635,1.154,0.796,0.389,0.676,0.645,�k��,8.7,��
2020/04/02,03:00,0.671,0.944,0.634,1.152,0.798,0.391,0.676,0.646,�k��,9.9,��
2020/04/02,03:10,0.670,0.948,0.637,1.154,0.797,0.392,0.676,0.645,�k��,9.8,��
2020/04/02,03:20,0.670,0.947,0.636,1.154,0.799,0.391,0.677,0.648,�k��,9.1,��
2020/04/02,03:30,0.671,0.947,0.635,1.157,0.798,0.391,0.677,0.647,�k��,9.0,��
2020/04/02,03:40,0.673,0.948,0.637,1.155,0.801,0.391,0.677,0.647,�k��,9.5,��
2020/04/02,03:50,0.672,0.946,0.635,1.157,0.801,0.390,0.675,0.648,�k�k��,9.3,��
2020/04/02,04:00,0.670,0.948,0.637,1.158,0.800,0.391,0.679,0.647,�k�k��,9.8,��
2020/04/02,04:10,0.670,0.951,0.635,1.157,0.801,0.391,0.679,0.647,�k��,8.8,��
2020/04/02,04:20,0.672,0.952,0.638,1.158,0.802,0.391,0.677,0.649,�k��,11.6,��
2020/04/02,04:30,0.673,0.950,0.640,1.158,0.802,0.391,0.677,0.647,�k��,8.9,��
2020/04/02,04:40,0.673,0.951,0.639,1.157,0.801,0.390,0.678,0.648,���k��,10.7,��
2020/04/02,04:50,0.672,0.952,0.638,1.159,0.804,0.390,0.678,0.648,���k��,13.0,��
2020/04/02,05:00,0.672,0.952,0.640,1.161,0.804,0.391,0.676,0.647,���k��,11.1,��
2020/04/02,05:10,0.673,0.953,0.637,1.160,0.806,0.390,0.677,0.647,���k��,13.0,��
2020/04/02,05:20,0.674,0.953,0.640,1.163,0.806,0.393,0.678,0.649,�k��,12.7,��
2020/04/02,05:30,0.674,0.952,0.639,1.159,0.805,0.391,0.677,0.647,�k��,14.1,��
2020/04/02,05:40,0.675,0.954,0.641,1.160,0.807,0.390,0.679,0.649,�k��,12.4,��
2020/04/02,05:50,0.675,0.952,0.639,1.162,0.806,0.390,0.677,0.650,�k��,12.0,��
2020/04/02,06:00,0.675,0.955,0.640,1.163,0.806,0.392,0.678,0.648,�k��,12.1,��
2020/04/02,06:10,0.674,0.957,0.640,1.162,0.807,0.390,0.677,0.650,�k��,10.2,��
2020/04/02,06:20,0.673,0.955,0.640,1.162,0.809,0.390,0.679,0.649,�k��,7.8,��
2020/04/02,06:30,0.675,0.956,0.639,1.164,0.808,0.391,0.678,0.650,�k��,10.4,��
2020/04/02,06:40,0.675,0.957,0.641,1.164,0.810,0.391,0.679,0.650,�k��,11.7,��
2020/04/02,06:50,0.675,0.956,0.641,1.165,0.807,0.390,0.680,0.649,�k��,11.9,��
2020/04/02,07:00,0.676,0.956,0.639,1.165,0.808,0.391,0.679,0.650,�k��,11.6,��
2020/04/02,07:10,0.677,0.958,0.640,1.162,0.808,0.391,0.680,0.650,�k��,12.2,��
2020/04/02,07:20,0.675,0.957,0.643,1.166,0.811,0.391,0.680,0.649,�k��,14.7,��
2020/04/02,07:30,0.676,0.956,0.641,1.167,0.811,0.390,0.679,0.651,�k��,11.3,��
2020/04/02,07:40,0.677,0.958,0.640,1.168,0.810,0.391,0.680,0.649,�k��,15.0,��
2020/04/02,07:50,0.677,0.957,0.642,1.169,0.810,0.391,0.680,0.652,���k��,15.6,��
2020/04/02,08:00,0.678,0.961,0.643,1.168,0.812,0.392,0.679,0.648,�k��,18.5,��
2020/04/02,08:10,0.678,0.958,0.642,1.168,0.813,0.392,0.680,0.648,���k��,15.3,��
2020/04/02,08:20,0.676,0.958,0.641,1.169,0.812,0.391,0.680,0.648,�k��,10.7,��
2020/04/02,08:30,0.676,0.955,0.644,1.169,0.814,0.391,0.681,0.649,���k��,12.1,��
2020/04/02,08:40,0.678,0.957,0.643,1.171,0.811,0.391,0.681,0.649,���k��,10.7,��
2020/04/02,08:50,0.677,0.958,0.644,1.168,0.813,0.391,0.681,0.650,�k��,15.5,��
2020/04/02,09:00,0.677,0.956,0.643,1.172,0.815,0.393,0.681,0.649,���k��,13.5,��
2020/04/02,09:10,0.679,0.955,0.643,1.170,0.814,0.393,0.681,0.648,���k��,13.8,��
2020/04/02,09:20,0.678,0.953,0.646,1.171,0.815,0.391,0.681,0.649,�k��,17.2,��
2020/04/02,09:30,0.679,0.957,0.645,1.174,0.815,0.392,0.682,0.648,���k��,13.9,��
2020/04/02,09:40,0.680,0.956,0.645,1.172,0.814,0.391,0.680,0.649,���k��,11.6,��
2020/04/02,09:50,0.678,0.955,0.644,1.173,0.815,0.394,0.681,0.650,���k��,9.4,��
2020/04/02,10:00,0.681,0.956,0.646,1.173,0.815,0.392,0.683,0.649,�k��,9.5,��
2020/04/02,10:10,0.678,0.956,0.647,1.174,0.817,0.390,0.682,0.650,���k��,5.5,��
2020/04/02,10:20,0.679,0.956,0.645,1.171,0.817,0.390,0.682,0.648,��,6.4,��
2020/04/02,10:30,0.680,0.956,0.648,1.173,0.815,0.391,0.684,0.648,��,4.0,��
2020/04/02,10:40,0.680,0.956,0.646,1.176,0.818,0.392,0.682,0.649,���k��,5.8,��
2020/04/02,10:50,0.679,0.956,0.648,1.175,0.816,0.392,0.683,0.648,���k��,7.1,��
2020/04/02,11:00,0.680,0.960,0.647,1.174,0.819,0.392,0.683,0.648,�k��,6.9,��
2020/04/02,11:10,0.678,0.956,0.649,1.175,0.819,0.390,0.683,0.650,�k��,8.6,��
2020/04/02,11:20,0.680,0.961,0.647,1.174,0.818,0.391,0.685,0.649,�k��,9.4,��
2020/04/02,11:30,0.680,0.958,0.649,1.173,0.817,0.391,0.685,0.651,�k�k��,6.8,��
2020/04/02,11:40,0.681,0.957,0.647,1.177,0.819,0.392,0.683,0.648,�k�k��,7.1,��
2020/04/02,11:50,0.681,0.960,0.648,1.176,0.821,0.391,0.683,0.649,�k��,6.0,��
2020/04/02,12:00,0.683,0.965,0.645,1.178,0.820,0.391,0.685,0.648,�k��,5.4,��
2020/04/02,12:10,0.681,0.966,0.646,1.178,0.820,0.392,0.683,0.649,���k��,7.2,��
2020/04/02,12:20,0.680,0.965,0.648,1.179,0.820,0.392,0.683,0.649,��,9.2,��
2020/04/02,12:30,0.681,0.966,0.649,1.180,0.820,0.392,0.684,0.651,���k��,8.5,��
2020/04/02,12:40,0.682,0.967,0.647,1.178,0.823,0.392,0.685,0.650,���k��,10.3,��
2020/04/02,12:50,0.682,0.964,0.647,1.179,0.823,0.391,0.683,0.649,���k��,8.0,��
2020/04/02,13:00,0.681,0.964,0.648,1.181,0.823,0.393,0.685,0.651,���k��,11.0,��
2020/04/02,13:10,0.681,0.964,0.645,1.181,0.822,0.394,0.686,0.650,���k��,9.8,��
2020/04/02,13:20,0.680,0.962,0.648,1.181,0.823,0.393,0.684,0.648,��,12.7,��
2020/04/02,13:30,0.680,0.961,0.649,1.181,0.823,0.393,0.684,0.651,�k��,9.3,��
2020/04/02,13:40,0.681,0.963,0.648,1.180,0.824,0.394,0.683,0.651,�k��,7.8,��
2020/04/02,13:50,0.682,0.964,0.650,1.182,0.825,0.395,0.684,0.650,���k��,7.9,��
2020/04/02,14:00,0.680,0.962,0.649,1.179,0.824,0.392,0.684,0.650,���k��,5.7,��
2020/04/02,14:10,0.681,0.966,0.648,1.180,0.824,0.393,0.684,0.650,���k��,6.4,��
2020/04/02,14:20,0.679,0.965,0.650,1.183,0.823,0.392,0.685,0.650,���k��,5.1,��
2020/04/02,14:30,0.679,0.961,0.648,1.182,0.823,0.392,0.685,0.650,�k��,5.0,�L
2020/04/02,14:40,0.680,0.964,0.650,1.181,0.824,0.392,0.686,0.650,�k��,6.7,�L
2020/04/02,14:50,0.679,0.967,0.650,1.182,0.825,0.395,0.685,0.649,�k��,9.3,��
2020/04/02,15:00,0.680,0.967,0.651,1.180,0.824,0.395,0.684,0.651,�k��,11.4,��
2020/04/02,15:10,0.679,0.968,0.652,1.181,0.823,0.394,0.683,0.648,�k��,11.3,��
2020/04/02,15:20,0.681,0.968,0.652,1.182,0.824,0.394,0.687,0.651,�k��,10.3,��
2020/04/02,15:30,0.683,0.969,0.652,1.182,0.825,0.394,0.685,0.650,�k��,10.2,��
2020/04/02,15:40,0.683,0.970,0.652,1.181,0.822,0.394,0.685,0.651,�k��,10.2,��
2020/04/02,15:50,0.683,0.971,0.653,1.183,0.828,0.396,0.685,0.648,�k��,8.8,��
2020/04/02,16:00,0.683,0.971,0.653,1.180,0.824,0.395,0.684,0.650,�k��,9.1,��
2020/04/02,16:10,0.684,0.973,0.651,1.184,0.827,0.394,0.684,0.652,�k��,10.6,��
2020/04/02,16:20,0.683,0.973,0.653,1.185,0.827,0.393,0.683,0.653,�k��,9.5,��
2020/04/02,16:30,0.682,0.974,0.653,1.182,0.828,0.396,0.685,0.654,�k�k��,9.8,��
2020/04/02,16:40,0.682,0.974,0.652,1.181,0.828,0.393,0.684,0.653,�k��,9.1,��
2020/04/02,16:50,0.682,0.974,0.651,1.180,0.830,0.394,0.684,0.653,�k��,9.5,��
2020/04/02,17:00,0.686,0.973,0.652,1.185,0.827,0.394,0.682,0.653,�k��,10.2,��
2020/04/02,17:10,0.684,0.975,0.652,1.186,0.829,0.393,0.684,0.654,�k��,9.8,��
2020/04/02,17:20,0.682,0.976,0.650,1.184,0.831,0.395,0.685,0.654,�k��,7.2,��
2020/04/02,17:30,0.682,0.976,0.653,1.181,0.830,0.394,0.684,0.656,���k��,6.0,��
2020/04/02,17:40,0.683,0.977,0.652,1.181,0.831,0.394,0.683,0.653,�k��,6.0,��
2020/04/02,17:50,0.684,0.975,0.653,1.183,0.830,0.392,0.684,0.653,�k��,8.7,��
2020/04/02,18:00,0.682,0.975,0.651,1.185,0.829,0.392,0.685,0.653,�k��,8.3,��
2020/04/02,18:10,0.682,0.975,0.652,1.181,0.830,0.395,0.685,0.652,�k��,6.3,��
2020/04/02,18:20,0.684,0.977,0.653,1.185,0.830,0.393,0.684,0.652,�k�k��,7.8,��
2020/04/02,18:30,0.684,0.978,0.651,1.184,0.830,0.394,0.684,0.652,�k��,7.7,��
2020/04/02,18:40,0.680,0.975,0.652,1.184,0.830,0.393,0.686,0.653,�k��,6.2,��
2020/04/02,18:50,0.682,0.978,0.651,1.184,0.830,0.392,0.686,0.652,�k��,4.8,��
2020/04/02,19:00,0.681,0.976,0.651,1.185,0.830,0.392,0.685,0.653,�k��,4.6,��
2020/04/02,19:10,0.683,0.975,0.652,1.185,0.830,0.393,0.685,0.654,�k��,4.2,��
2020/04/02,19:20,0.682,0.978,0.650,1.183,0.830,0.393,0.686,0.653,�k�k��,4.0,��
2020/04/02,19:30,0.681,0.977,0.650,1.185,0.829,0.394,0.686,0.655,�k�k��,3.0,��
2020/04/02,19:40,0.682,0.978,0.651,1.185,0.829,0.392,0.685,0.653,�k�k��,3.4,��
2020/04/02,19:50,0.682,0.979,0.652,1.185,0.830,0.391,0.686,0.654,�k�k��,4.7,��
2020/04/02,20:00,0.683,0.977,0.651,1.183,0.830,0.391,0.687,0.652,�k�k��,5.1,��
2020/04/02,20:10,0.681,0.977,0.652,1.184,0.830,0.392,0.686,0.654,�k�k��,5.1,��
2020/04/02,20:20,0.682,0.977,0.651,1.186,0.830,0.392,0.687,0.652,�k��,5.5,��
2020/04/02,20:30,0.682,0.975,0.650,1.181,0.831,0.393,0.687,0.652,�k��,7.2,��
2020/04/02,20:40,0.681,0.975,0.653,1.184,0.829,0.393,0.686,0.653,�k��,5.9,��
2020/04/02,20:50,0.679,0.977,0.650,1.185,0.832,0.392,0.687,0.653,�k��,5.1,��
2020/04/02,21:00,0.682,0.976,0.653,1.184,0.830,0.394,0.686,0.654,�k,3.4,��
2020/04/02,21:10,0.683,0.975,0.652,1.185,0.831,0.392,0.686,0.653,�k��,5.3,��
2020/04/02,21:20,0.683,0.976,0.654,1.185,0.830,0.392,0.687,0.652,�k��,4.7,��
2020/04/02,21:30,0.682,0.975,0.654,1.187,0.831,0.393,0.687,0.653,�k��,5.5,��
2020/04/02,21:40,0.681,0.976,0.654,1.184,0.833,0.393,0.685,0.654,�k��,4.0,��
2020/04/02,21:50,0.682,0.976,0.654,1.187,0.832,0.393,0.687,0.653,�k��,3.3,��
2020/04/02,22:00,0.681,0.976,0.654,1.186,0.830,0.392,0.688,0.654,�k��,4.6,��
2020/04/02,22:10,0.681,0.974,0.652,1.184,0.833,0.392,0.687,0.652,�k��,4.3,��
2020/04/02,22:20,0.680,0.977,0.655,1.184,0.832,0.392,0.687,0.653,�k��,2.0,��
2020/04/02,22:30,0.682,0.976,0.653,1.184,0.830,0.393,0.687,0.651,�k�k��,2.0,��
2020/04/02,22:40,0.683,0.975,0.654,1.184,0.833,0.392,0.686,0.653,�k��,1.2,��
2020/04/02,22:50,0.682,0.975,0.653,1.184,0.833,0.393,0.688,0.654,�k�k��,1.1,��
2020/04/02,23:00,0.681,0.975,0.653,1.187,0.830,0.392,0.688,0.654,��,2.0,��
2020/04/02,23:10,0.681,0.975,0.653,1.186,0.830,0.391,0.687,0.653,�k��,1.5,��
2020/04/02,23:20,0.681,0.975,0.653,1.184,0.832,0.393,0.686,0.652,�k�k��,1.2,��
2020/04/02,23:30,0.682,0.976,0.652,1.185,0.832,0.393,0.686,0.652,�k��,1.5,��
2020/04/02,23:40,0.681,0.976,0.653,1.188,0.833,0.394,0.686,0.653,�k��,2.9,��
2020/04/02,23:50,0.682,0.975,0.653,1.185,0.832,0.391,0.687,0.654,�k��,4.2,��
